Waarnemingen

Advertentie
Mijn weer
Carcassonne, Frankrijk (7635): temperatuur & dauwpunt: 18.02.2017 09:00:00 - 24.02.2017 09:00:00 (CET)Carcassonne, Frankrijk (7635): temperatuur 5cm: 18.02.2017 09:00:00 - 24.02.2017 09:00:00 (CET)Carcassonne, Frankrijk (7635): temperatuur -20cm & temperatuur -100cm: 18.02.2017 09:00:00 - 24.02.2017 09:00:00 (CET)Carcassonne, Frankrijk (7635): windsnelheid & windstoten: 18.02.2017 09:00:00 - 24.02.2017 09:00:00 (CET)Carcassonne, Frankrijk (7635): windrichting: 18.02.2017 09:00:00 - 24.02.2017 09:00:00 (CET)Carcassonne, Frankrijk (7635): luchtdruk: 18.02.2017 09:00:00 - 24.02.2017 09:00:00 (CET)Carcassonne, Frankrijk (7635): zicht: 18.02.2017 09:00:00 - 24.02.2017 09:00:00 (CET)Carcassonne, Frankrijk (7635): Zonneschijnduur: 18.02.2017 09:00:00 - 24.02.2017 09:00:00 (CET)Carcassonne, Frankrijk (7635): neerslag: 18.02.2017 09:00:00 - 24.02.2017 09:00:00 (CET)
Datum & Tijd tt [°C] td [°C] tt 5cm [°C] tt -20cm [°C] tt -100cm [°C] ff [km/u] ff [kn] fx [km/u] fx [kn] dd ppp [hPa] vv [km] sd [min] rr [mm]
24.02.2017 09:00:00 9,1 6,2 8,7 10,7 10,8 29 16 44 24 WNW 1016,0 36 0 0,0
24.02.2017 08:00:00 9,1 8,0 8,3 10,8 10,8 21 11 40 21 W 1015,8 20 0 0,0
24.02.2017 07:00:00 8,9 8,1 8,4 10,9 10,8 23 12 37 20 W 1015,6 4,2 0 0,0
24.02.2017 06:00:00 9,2 7,3 8,7 11,0 10,8 22 12 34 18 WNW 1015,7 11 0 0,0
24.02.2017 05:00:00 9,5 6,9 8,8 11,1 10,8 18 10 29 16 WNW 1015,5 10 0 0,0
24.02.2017 04:00:00 9,5 6,9 8,9 11,2 10,8 15 8 34 18 W 1015,6 10 0 0,0
24.02.2017 03:00:00 10,1 7,2 9,4 11,3 10,8 19 11 32 18 WNW 1015,9 9 0 0,0
24.02.2017 02:00:00 10,3 7,7 9,9 11,4 10,8 14 8 27 14 W 1016,4 7 0 0,0
24.02.2017 01:00:00 10,6 7,8 10,1 11,5 10,8 13 7 26 14 W 1016,9 8 0 0,0
24.02.2017 00:00:00 10,8 7,5 10,5 11,6 10,8 11 6 29 15 W 1017,0 11 0 0,0
23.02.2017 23:00:00 10,8 7,3 10,1 11,7 10,8 17 9 27 14 W 1016,9 12 0 0,0
23.02.2017 22:00:00 10,4 7,1 9,9 11,8 10,8 16 9 31 17 W 1016,3 12 0 0,0
23.02.2017 21:00:00 10,5 7,2 10,1 11,9 10,8 18 10 46 25 W 1015,8 13 0 0,0
23.02.2017 20:00:00 10,7 7,0 10,4 12,0 10,8 30 16 49 26 W 1015,3 12 0 0,0
23.02.2017 19:00:00 12,0 7,9 11,7 12,0 10,8 28 15 49 27 W 1014,0 12 0 0,0
23.02.2017 18:00:00 15,9 7,9 15,2 11,8 10,8 21 11 32 17 W 1012,8 15 0 0,0
23.02.2017 17:00:00 17,9 7,9 17,5 11,6 10,8 9 5 22 12 W 1012,6 36 0 0,0
23.02.2017 16:00:00 17,8 8,4 19,4 11,1 10,7 3 1 9 5 N 1013,0 36 26 0,0
23.02.2017 15:00:00 17,8 8,9 21,0 10,7 10,7 5 3 15 8 O 1013,5 32 60 0,0
23.02.2017 14:00:00 17,3 9,2 21,1 10,2 10,7 11 6 18 10 O 1014,0 30 60 0,0
23.02.2017 13:00:00 16,5 8,7 19,0 9,8 10,7 12 7 25 14 ONO 1015,1 32 60 0,0
23.02.2017 12:00:00 15,1 7,6 16,7 9,5 10,7 16 9 24 13 O 1015,8 43 60 0,0
23.02.2017 11:00:00 12,3 6,6 12,7 9,4 10,7 7 4 11 6 O 1015,8 35 60 0,0
23.02.2017 10:00:00 8,2 5,7 7,0 9,4 10,7 3 2 7 4 ZZO 1016,3 27 49 0,0
23.02.2017 09:00:00 4,8 4,4 0,5 9,6 10,7 4 2 12 7 ZO 1016,7 20 54 0,0
23.02.2017 08:00:00 1,8 1,4 -1,5 9,8 10,7 5 3 10 6 Z 1016,6 8 2 0,0
23.02.2017 07:00:00 0,9 0,3 -1,5 10,1 10,7 0 0 8 4 N 1016,6 6 0 0,0
23.02.2017 06:00:00 1,4 0,7 -1,2 10,3 10,7 2 1 6 3 Z 1017,1 6 0 0,0
23.02.2017 05:00:00 2,3 1,7 -0,7 10,5 10,7 3 1 10 5 ZW 1017,1 7 0 0,0
23.02.2017 04:00:00 2,4 1,7 -0,6 10,8 10,7 0 0 4 2 N 1017,5 6 0 0,0
23.02.2017 03:00:00 3,2 2,5 -0,2 11,0 10,7 3 2 5 3 W 1017,8 12 0 0,0
23.02.2017 02:00:00 3,9 3,2 0,3 11,3 10,7 2 1 9 5 NW 1018,1 10 0 0,0
23.02.2017 01:00:00 4,5 3,6 1,2 11,5 10,7 4 2 10 5 Z 1018,7 11 0 0,0
23.02.2017 00:00:00 5,1 3,6 1,4 11,8 10,7 4 2 11 6 Z 1019,2 13 0 0,0
22.02.2017 23:00:00 7,6 5,9 3,2 12,0 10,7 6 3 11 6 Z 1019,4 21 0 0,0
22.02.2017 22:00:00 8,9 6,2 4,8 12,2 10,6 8 5 10 6 Z 1019,8 28 0 0,0
22.02.2017 21:00:00 10,5 6,4 5,8 12,4 10,7 6 3 14 8 ZZW 1019,7 31 0 0,0
22.02.2017 20:00:00 13,9 7,4 10,2 12,6 10,7 11 6 23 12 WZW 1019,6 47 0 0,0
22.02.2017 19:00:00 13,5 7,5 10,0 12,6 10,7 7 4 22 12 WZW 1019,4 50 9 0,0
22.02.2017 18:00:00 16,4 8,1 16,0 12,5 10,6 13 7 32 18 W 1019,1 48 58 0,0
22.02.2017 17:00:00 18,2 7,9 19,0 12,2 10,6 18 10 32 17 W 1019,2 45 60 0,0
22.02.2017 16:00:00 18,5 7,9 20,1 11,8 10,6 20 11 32 17 W 1019,7 47 60 0,0
22.02.2017 15:00:00 18,3 8,3 19,9 11,4 10,6 18 10 31 17 WZW 1020,2 60 60 0,0
22.02.2017 14:00:00 18,1 8,9 20,4 10,9 10,6 16 9 29 16 W 1021,0 60 60 0,0
22.02.2017 13:00:00 17,0 8,4 19,0 10,4 10,6 18 10 31 17 W 1022,1 54 60 0,0
22.02.2017 12:00:00 15,4 7,9 18,1 10,1 10,6 19 11 32 17 W 1022,7 38 60 0,0
22.02.2017 11:00:00 14,9 7,9 16,5 9,9 10,6 17 9 32 17 W 1023,1 19 60 0,0
22.02.2017 10:00:00 13,3 7,9 12,9 9,9 10,6 15 8 28 15 W 1023,5 39 60 0,0
22.02.2017 09:00:00 11,3 7,4 9,0 10,0 10,6 14 8 25 14 W 1023,6 33 45 0,0
22.02.2017 08:00:00 9,6 6,9 8,5 10,1 10,6 16 9 24 13 W 1023,5 33 1 0,0
22.02.2017 07:00:00 10,8 7,1 9,8 10,2 10,6 13 7 23 13 W 1023,4 52 0 0,0
22.02.2017 06:00:00 11,2 7,3 9,9 10,2 10,6 13 7 24 13 W 1023,5 51 0 0,0
22.02.2017 05:00:00 10,9 7,2 9,9 10,3 10,6 16 8 27 14 W 1023,6 45 0 0,0
22.02.2017 04:00:00 10,8 7,3 9,9 10,4 10,6 14 8 24 13 W 1023,8 38 0 0,0
22.02.2017 03:00:00 11,4 7,5 10,5 10,5 10,6 14 8 24 13 W 1024,2 54 0 0,0
22.02.2017 02:00:00 11,3 7,6 10,6 10,6 10,6 14 7 24 13 W 1024,5 49 0 0,0
22.02.2017 01:00:00 11,3 7,6 9,9 10,7 10,6 14 8 26 14 W 1024,6 56 0 0,0
22.02.2017 00:00:00 10,8 7,3 9,9 10,8 10,6 14 8 28 15 W 1024,6 47 0 0,0
21.02.2017 23:00:00 10,8 7,1 9,9 11,0 10,6 14 8 26 14 W 1024,6 52 0 0,0
21.02.2017 22:00:00 10,8 7,1 9,8 11,1 10,6 14 8 29 15 W 1024,7 49 0 0,0
21.02.2017 21:00:00 11,5 7,2 10,5 11,3 10,6 18 10 29 16 WNW 1024,8 39 0 0,0
21.02.2017 20:00:00 11,6 7,3 10,7 11,4 10,6 16 9 29 15 WNW 1024,5 35 0 0,0
21.02.2017 19:00:00 12,0 7,3 11,2 11,4 10,6 18 10 29 16 WNW 1024,2 46 0 0,0
21.02.2017 18:00:00 13,1 7,5 - - - 16 9 34 18 WNW 1023,9 40 - 0,0
21.02.2017 17:00:00 14,7 8,0 15,2 11,1 10,6 24 13 37 20 WNW 1023,8 44 60 0,0
21.02.2017 16:00:00 15,5 8,2 15,5 10,8 10,6 22 12 39 21 WNW 1024,0 32 26 0,0
21.02.2017 15:00:00 14,3 8,0 15,5 10,5 10,6 24 13 40 21 W 1024,6 23 25 0,0
21.02.2017 14:00:00 14,3 7,6 16,4 10,0 10,6 29 16 43 23 W 1025,3 19 57 0,0
21.02.2017 13:00:00 13,7 7,2 16,0 9,7 10,6 25 14 42 23 W 1026,2 17 60 0,0
21.02.2017 12:00:00 12,9 6,7 14,4 9,4 10,6 23 12 39 21 W 1027,2 16 58 0,0
21.02.2017 11:00:00 11,8 6,3 14,2 9,2 10,6 21 11 35 19 W 1027,4 15 60 0,0
21.02.2017 10:00:00 11,0 6,3 9,9 9,1 10,6 16 9 29 16 W 1027,5 15 40 0,0
21.02.2017 09:00:00 9,4 5,6 7,8 9,2 10,6 14 7 23 12 W 1027,5 15 49 0,0
21.02.2017 08:00:00 8,3 5,4 7,9 9,2 10,6 11 6 19 10 W 1027,2 16 0 0,0
21.02.2017 07:00:00 8,4 5,5 8,0 9,3 10,6 9 5 17 9 W 1027,2 17 0 0,0
21.02.2017 06:00:00 8,4 5,5 6,9 9,4 10,6 11 6 20 11 W 1027,3 18 0 0,0
21.02.2017 05:00:00 7,6 5,1 6,9 9,4 10,6 13 7 26 14 WNW 1027,6 17 0 0,0
21.02.2017 04:00:00 9,0 5,4 7,7 9,5 10,6 16 9 33 18 W 1027,6 37 0 0,0
21.02.2017 03:00:00 8,0 4,8 6,4 9,7 10,6 18 10 29 15 W 1027,9 18 0 0,0
21.02.2017 02:00:00 7,1 4,2 6,3 9,8 10,6 13 7 31 17 W 1028,1 14 0 0,0
21.02.2017 01:00:00 7,9 4,3 7,0 10,0 10,6 14 8 31 17 W 1028,4 19 0 0,0
21.02.2017 00:00:00 8,3 4,5 7,4 10,1 10,6 20 11 34 18 W 1028,3 21 0 0,0
20.02.2017 23:00:00 8,2 4,4 6,5 10,3 10,6 16 9 29 15 W 1028,6 21 0 0,0
20.02.2017 22:00:00 8,0 4,4 - - - 9 5 26 14 W 1028,7 21 - -
20.02.2017 21:00:00 8,2 4,2 7,4 10,7 10,6 13 7 23 12 W 1028,4 21 0 0,0
20.02.2017 20:00:00 8,7 4,1 7,9 10,8 10,6 16 9 28 15 WNW 1028,0 25 0 0,0
20.02.2017 19:00:00 9,3 4,5 8,4 10,8 10,6 17 9 33 18 WNW 1027,6 29 6 0,0
20.02.2017 18:00:00 10,5 4,6 10,2 10,8 10,6 24 13 39 21 WNW 1027,2 33 60 0,0
20.02.2017 17:00:00 11,8 5,0 12,4 10,6 10,6 23 13 41 22 WNW 1027,0 37 60 0,0
20.02.2017 16:00:00 12,6 5,0 12,6 10,3 10,6 27 14 42 23 NW 1026,9 41 56 0,0
20.02.2017 15:00:00 11,9 5,1 12,7 9,9 10,6 27 15 45 25 NW 1027,2 27 44 0,0
20.02.2017 14:00:00 12,7 5,1 15,2 9,6 10,6 29 16 46 25 NW 1027,7 16 60 0,0
20.02.2017 13:00:00 12,5 5,2 10,7 9,3 10,6 29 16 44 24 NW 1028,4 17 49 0,0
20.02.2017 12:00:00 10,7 5,4 11,6 9,0 10,6 24 13 39 21 WNW 1029,1 24 26 0,0
20.02.2017 11:00:00 10,9 6,6 10,1 8,9 10,6 23 13 36 20 WNW 1029,1 9 57 0,0
20.02.2017 10:00:00 9,0 5,9 8,6 8,9 10,6 25 13 36 19 WNW 1029,2 9 60 0,0
20.02.2017 09:00:00 6,7 5,2 5,3 9,0 10,6 13 7 28 15 W 1029,1 7 57 0,0
20.02.2017 08:00:00 5,7 4,5 5,2 9,1 10,7 18 10 31 17 W 1028,8 6 0 0,0
20.02.2017 07:00:00 6,1 4,7 5,5 9,1 10,6 18 10 35 19 W 1028,6 7 0 0,0
20.02.2017 06:00:00 7,2 5,7 6,7 9,2 10,7 24 13 34 19 WNW 1028,1 8 0 0,0
20.02.2017 05:00:00 7,3 5,6 6,7 9,3 10,6 22 12 36 19 W 1028,1 9 0 0,0
20.02.2017 04:00:00 7,2 5,7 6,4 9,5 10,7 22 12 31 17 WNW 1027,8 9 0 0,0
20.02.2017 03:00:00 7,2 5,7 6,4 9,6 10,7 18 10 26 14 WNW 1027,9 8 0 0,0
20.02.2017 02:00:00 7,6 6,1 6,2 9,7 10,6 16 9 26 14 W 1028,2 7 0 0,0
20.02.2017 01:00:00 7,1 5,6 6,3 9,8 10,7 14 7 22 12 W 1028,3 5 0 0,0
20.02.2017 00:00:00 9,3 6,6 8,4 10,0 10,7 18 10 35 19 W 1027,7 10 0 0,0
19.02.2017 23:00:00 9,7 6,8 7,2 10,1 10,7 16 9 29 16 W 1027,7 10 0 0,0
19.02.2017 22:00:00 8,2 6,2 5,6 10,2 10,7 11 6 16 9 WNW 1027,5 6 0 0,0
19.02.2017 21:00:00 8,0 6,3 4,3 10,3 10,7 10 5 15 8 WZW 1027,1 8 0 0,0
19.02.2017 20:00:00 9,6 6,5 6,1 10,4 10,7 9 5 14 7 WZW 1026,7 10 0 0,0
19.02.2017 19:00:00 10,2 6,5 7,8 10,4 10,7 5 3 23 12 W 1026,7 12 5 0,0
19.02.2017 18:00:00 12,3 7,0 11,8 10,3 10,7 18 10 32 17 WNW 1026,2 18 60 0,0
19.02.2017 17:00:00 13,5 7,3 14,1 10,0 10,7 24 13 37 20 WNW 1026,1 16 60 0,0
19.02.2017 16:00:00 14,2 7,9 15,5 9,6 10,7 22 12 36 20 W 1026,1 14 60 0,0
19.02.2017 15:00:00 13,3 7,9 14,8 9,3 10,7 19 10 29 16 WNW 1026,4 12 57 0,0
19.02.2017 14:00:00 11,4 7,3 11,3 9,0 10,7 13 7 26 14 W 1027,2 13 12 0,0
19.02.2017 13:00:00 10,1 6,8 11,0 8,8 10,7 13 7 22 12 WNW 1028,2 12 3 0,0
19.02.2017 12:00:00 8,8 6,4 9,4 8,6 10,7 12 7 23 12 W 1028,9 10 0 0,0
19.02.2017 11:00:00 7,7 6,3 7,8 8,5 10,7 11 6 22 12 W 1028,9 10 0 0,0
19.02.2017 10:00:00 6,4 6,0 4,0 8,6 10,7 7 4 14 8 W 1028,7 8 22 0,0
19.02.2017 09:00:00 2,9 2,5 0,6 8,7 10,7 0 0 10 6 N 1028,2 4,2 37 0,0
19.02.2017 08:00:00 1,4 0,8 -0,1 8,9 10,7 7 4 12 7 Z 1027,3 6 0 0,0
19.02.2017 07:00:00 1,4 0,8 -0,3 9,1 10,7 6 4 11 6 Z 1026,5 7 0 0,0
19.02.2017 06:00:00 1,6 0,9 -0,6 9,3 10,7 4 2 10 5 Z 1026,2 8 0 0,0
19.02.2017 05:00:00 1,7 1,0 -0,5 9,5 10,7 5 3 9 5 Z 1025,7 6 0 0,0
19.02.2017 04:00:00 2,5 1,8 -0,1 9,6 10,7 6 3 9 5 Z 1025,1 9 0 0,0
19.02.2017 03:00:00 3,3 2,4 0,2 9,8 10,7 2 1 9 5 ZZO 1025,2 10 0 0,0
19.02.2017 02:00:00 2,9 2,0 -0,2 10,0 10,7 4 2 5 3 ZZO 1025,0 7 0 0,0
19.02.2017 01:00:00 3,1 1,8 0,3 10,3 10,7 0 0 6 3 N 1024,8 9 0 0,0
19.02.2017 00:00:00 4,1 2,8 0,7 10,5 10,7 0 0 5 3 N 1024,5 10 0 0,0
18.02.2017 23:00:00 5,7 3,7 1,9 10,7 10,7 4 2 10 5 OZO 1024,2 13 0 0,0
18.02.2017 22:00:00 6,4 4,2 3,6 10,8 10,7 7 4 10 6 O 1023,9 16 0 0,0
18.02.2017 21:00:00 6,4 3,9 3,5 11,0 10,7 9 5 10 5 O 1023,6 18 0 0,0
18.02.2017 20:00:00 7,6 3,8 4,0 11,1 10,7 6 4 8 5 O 1023,0 25 0 0,0
18.02.2017 19:00:00 9,1 3,5 6,6 11,2 10,7 6 3 14 8 O 1022,4 41 0 0,0
18.02.2017 18:00:00 12,1 3,1 11,0 11,2 10,7 7 4 27 15 OZO 1021,6 59 6 0,0
18.02.2017 17:00:00 13,5 2,7 14,0 11,1 10,6 20 11 34 18 O 1021,3 45 44 0,0
18.02.2017 16:00:00 14,3 5,6 15,8 10,8 10,6 22 12 32 17 O 1020,9 48 60 0,0
18.02.2017 15:00:00 13,6 6,9 14,3 10,6 10,7 19 10 29 16 O 1021,0 45 2 0,0
18.02.2017 14:00:00 13,9 5,5 16,3 10,2 10,6 19 10 26 14 O 1021,4 56 47 0,0
18.02.2017 13:00:00 13,5 5,6 15,9 9,8 10,6 19 10 25 14 O 1022,4 30 56 0,0
18.02.2017 12:00:00 12,2 6,7 13,9 9,6 10,6 8 4 14 8 O 1023,3 22 53 0,0
18.02.2017 11:00:00 9,6 6,1 12,1 9,6 10,6 8 5 13 7 NO 1023,5 21 56 0,0
18.02.2017 10:00:00 7,0 6,6 4,9 9,6 10,6 2 1 6 3 ZW 1023,3 20 16 0,0
18.02.2017 09:00:00 3,7 3,3 1,6 9,8 10,6 3 2 7 4 ZZW 1023,3 13 17 0,0

tt = temperatuur
td = dauwpunt
tt 5cm = temperatuur 5cm
tt -20cm = temperatuur -20cm
tt -100cm = temperatuur -100cm
ff = windsnelheid
fx = windstoten
dd = windrichting
ppp = luchtdruk
vv = zicht
sd = Zonneschijnduur
rr = neerslag

Weerstations in de omgeving